Home   Weather   Tuscaloosa   Past weeks

Flag for USA Past Weather in Tuscaloosa, Alabama, USA — Yesterday and Last 2 Weeks

Now
63 °F

Clear.


Feels Like: 63 °F
Forecast: 54 / 81 °F
Wind: No wind

Location: Tuscaloosa Municipal Airport

Current Time: Sep 30, 2016 at 8:43:19 PM

Latest Report: Sep 30, 2016 at 7:53 PM


Visibility: 10 mi

Pressure: 30.04 "Hg

Humidity: 65%

Dew Point: 51 °F

Location of TuscaloosaLocation

Past Weather in Tuscaloosa — Graph

°F

Tuscaloosa Temperature Yesterday

Maximum temperature yesterday: 78 °F (at 3:53 PM)
Minimum temperature yesterday: 57 °F (at 11:53 PM)
Average temperature yesterday: 67 °F

High & Low Weather Summary for the Past Weeks

 TemperatureHumidityPressure
High97 °F (Sep 23, 2:53 PM)100% (Sep 17, 10:57 AM)30.12 "Hg (Sep 17, 10:57 AM)
Low50 °F (Sep 30, 5:53 AM)17% (Sep 28, 4:53 PM)29.87 "Hg (Sep 27, 5:53 PM)
Average77 °F69%30.00 "Hg
* Reported Sep 15 6:53 PM — Sep 30 6:53 PM, Tuscaloosa, Weather by CustomWeather, © 2016

Note: Actual official high and low records may vary slightly from our data, if they occured in-between our weather recording intervals... More about our weather records

Advertising

Tuscaloosa Weather History for the Previous 24 Hours

Scroll right to see more
 ConditionsComfort  
Time TempWeatherWind HumidityBarometerVisibility
6:53 PM
Fri, Sep 30
66 °FClear.No wind56%30.03 "Hg10 mi
5:53 PM75 °FSunny.5 mph37%30.03 "Hg10 mi
4:53 PM76 °FSunny.6 mph37%30.03 "Hg10 mi
3:53 PM76 °FPartly sunny.5 mph37%30.03 "Hg10 mi
2:53 PM74 °FScattered clouds.7 mph40%30.04 "Hg10 mi
1:53 PM76 °FSunny.8 mph40%30.06 "Hg10 mi
12:53 PM72 °FScattered clouds.5 mph48%30.08 "Hg10 mi
11:53 AM72 °FScattered clouds.7 mph49%30.10 "Hg10 mi
10:53 AM71 °FPassing clouds.No wind51%30.11 "Hg10 mi
9:53 AM64 °FSunny.No wind68%30.12 "Hg10 mi
8:53 AM59 °FSunny.No wind81%30.12 "Hg10 mi
7:53 AM54 °FSunny.No wind93%30.11 "Hg10 mi
6:53 AM51 °FSunny.No wind92%30.09 "Hg9 mi
5:53 AM50 °FClear.No wind96%30.08 "Hg10 mi
4:53 AM51 °FClear.No wind92%30.08 "Hg10 mi
3:53 AM52 °FClear.No wind93%30.06 "Hg10 mi
2:53 AM56 °FClear.No wind84%30.07 "Hg10 mi
1:53 AM57 °FClear.5 mph78%30.08 "Hg10 mi
12:53 AM59 °FClear.7 mph75%30.09 "Hg10 mi
11:53 PM
Thu, Sep 29
57 °FClear.No wind81%30.11 "Hg10 mi
10:53 PM59 °FClear.No wind72%30.10 "Hg10 mi
9:53 PM61 °FClear.5 mph67%30.11 "Hg10 mi
8:53 PM64 °FClear.6 mph58%30.10 "Hg10 mi
Weather by CustomWeather, © 2016

See weather overviewHow to use our weather pages